Weather History for Dodge City, KS

Change the Weather History Date:

Monday, January 6, 2014

  Actual Average Record
Temperature  
Mean Temperature 8 °F -  
Max Temperature 23 °F 37 °F 70 °F (1903)
Min Temperature -6 °F 16 °F -16 °F (1912)
Degree Days  
Heating Degree Days 56    
Moisture  
Dew Point -1 °F    
Average Humidity 60    
Maximum Humidity 74    
Minimum Humidity 43    
Precipitation  
Precipitation 0.00 in - - ()
Sea Level Pressure  
Sea Level Pressure 30.56 in    
Wind  
Wind Speed 12 mph (West)    
Max Wind Speed 17 mph    
Max Gust Speed -    
Visibility 10 miles    
Events      
Averages and records for this station are not official NWS values.
T = Trace of Precipitation, MM = Missing Value Source: NWS Daily Summary

Daily Weather History Graph

Daily Weather History Graph

Search for Another Location

Airport:

Trip Planner

Search our weather history database for the weather conditions in past years. The results will help you decide how hot, cold, wet, or windy it might be!

Date:

Astronomy

Jan. 06, 2014 Rise Set
Actual Time 7:55 AM CST 5:36 PM CST
Civil Twilight 7:26 AM CST 6:05 PM CST
Nautical Twilight 6:53 AM CST 6:37 PM CST
Astronomical Twilight 6:22 AM CST 7:09 PM CST
Moon 11:18 AM CST (1/6) No Moon Set
Length of Visible Light 10h 38m
Length of Day
9h 40m
Waxing Crescent, 35% of the Moon is Illuminated
Jan 6
Waxing Crescent
Jan 7
First Quarter
Jan 15
Full
Jan 23
Last Quarter
Jan 30
New

Hourly Weather History & Observations

Time (CST) Temp. Windchill Dew Point Humidity Pressure Visibility Wind Dir Wind Speed Gust Speed Precip Events Conditions
12:52 AM 3.0 °F -14.8 °F -8.0 °F 60% 30.65 in 10.0 mi NNW 13.8 mph - N/A   Clear
1:52 AM 1.0 °F -16.6 °F -11.0 °F 57% 30.65 in 10.0 mi NNW 12.7 mph - N/A   Clear
2:52 AM -4.0 °F -19.0 °F -14.1 °F 62% 30.67 in 10.0 mi NW 8.1 mph - N/A   Clear
3:52 AM -7.1 °F -25.0 °F -16.1 °F 65% 30.67 in 10.0 mi NW 10.4 mph - N/A   Clear
4:52 AM -9.9 °F -27.5 °F -18.0 °F 68% 30.66 in 10.0 mi NW 9.2 mph - N/A   Clear
5:52 AM -2.9 °F -23.1 °F -14.1 °F 59% 30.64 in 10.0 mi NW 15.0 mph - N/A   Clear
6:52 AM -4.0 °F -23.7 °F -14.1 °F 62% 30.65 in 10.0 mi WNW 13.8 mph - N/A   Clear
7:52 AM -5.1 °F -22.5 °F -15.0 °F 62% 30.66 in 10.0 mi West 10.4 mph - N/A   Clear
8:52 AM -4.0 °F -23.0 °F -14.1 °F 62% 30.68 in 10.0 mi West 12.7 mph - N/A   Clear
9:52 AM 3.0 °F -10.5 °F -5.1 °F 69% 30.67 in 10.0 mi WSW 8.1 mph - N/A   Clear
10:52 AM 6.1 °F -6.8 °F -2.9 °F 67% 30.65 in 10.0 mi SW 8.1 mph - N/A   Clear
11:52 AM 14.0 °F -1.4 °F 3.0 °F 62% 30.60 in 10.0 mi WSW 15.0 mph - N/A   Clear
12:52 PM 18.0 °F 4.2 °F 6.1 °F 60% 30.55 in 10.0 mi West 13.8 mph - N/A   Clear
1:52 PM 19.9 °F 7.3 °F 7.0 °F 57% 30.52 in 10.0 mi West 12.7 mph - N/A   Clear
2:52 PM 21.9 °F 7.8 °F 9.0 °F 58% 30.51 in 10.0 mi West 17.3 mph - N/A   Clear
3:52 PM 23.0 °F 10.6 °F 9.0 °F 55% 30.51 in 10.0 mi West 13.8 mph - N/A   Clear
4:52 PM 21.9 °F 13.4 °F 8.1 °F 55% 30.51 in 10.0 mi West 6.9 mph - N/A   Clear
5:52 PM 18.0 °F 9.8 °F 7.0 °F 62% 30.48 in 10.0 mi WSW 5.8 mph - N/A   Clear
6:52 PM 15.1 °F 7.7 °F 7.0 °F 70% 30.48 in 10.0 mi SSW 4.6 mph - N/A   Clear
7:52 PM 16.0 °F 4.4 °F 8.1 °F 71% 30.47 in 10.0 mi SW 9.2 mph - N/A   Clear
8:52 PM 17.1 °F 5.0 °F 9.0 °F 71% 30.46 in 10.0 mi SW 10.4 mph - N/A   Clear
9:52 PM 18.0 °F 5.4 °F 10.9 °F 74% 30.43 in 10.0 mi SW 11.5 mph - N/A   Clear
10:52 PM 19.0 °F 5.0 °F 10.9 °F 71% 30.39 in 10.0 mi SW 15.0 mph - N/A   Clear
11:52 PM 19.9 °F 6.7 °F 10.9 °F 68% 30.35 in 10.0 mi SW 13.8 mph - N/A   Clear